Location: Cormont
(50.5693°N, 1.7416°E)
Time: 18:39:44
(UTC+00:00)

Cosmos 2297 - Pass Details

Date: 21 October 2019
Orbit: 834 x 860 km, 71.0° (Epoch: 12 November)

Event Time Altitude Azimuth Distance (km) Brightness Sun altitude
Rises 18:42:21 0° 188° (S) 3,398 6.9 -18.6°
Reaches altitude 10° 18:44:51 10° 183° (S) 2,471 6.1 -19.0°
Maximum altitude 18:50:17 49° 110° (ESE) 1,098 3.9 -19.8°
Enters shadow 18:53:24 25° 49° (NE) 1,685 4.9 -20.3°
